Date Time,Air Temp,Sky Temp,Clarity,Light Level,Rain Sensor,Readings
2016-12-07 00:00:05,17.7,7.8,10.0,0.0,2.8,112
2016-12-07 00:05:05,17.8,8.1,9.7,0.0,2.9,111
2016-12-07 00:10:05,17.5,8.0,9.6,0.0,2.9,112
2016-12-07 00:15:05,17.9,7.4,10.4,0.0,2.9,111
2016-12-07 00:20:05,17.9,7.4,10.5,0.0,2.9,112
2016-12-07 00:25:05,17.8,6.6,11.2,0.0,2.8,111
2016-12-07 00:30:05,17.8,7.4,10.4,0.0,2.7,111
2016-12-07 00:35:05,17.8,6.9,10.9,0.0,2.7,112
2016-12-07 00:40:05,17.8,7.1,10.7,0.0,2.7,111
2016-12-07 00:45:05,17.8,7.6,10.3,0.0,2.7,112
2016-12-07 00:50:05,17.9,7.5,10.3,0.0,2.7,111
2016-12-07 00:55:05,17.9,7.3,10.6,0.0,2.7,112
2016-12-07 01:00:05,17.9,7.3,10.6,0.0,2.7,111
2016-12-07 01:05:05,17.8,7.3,10.5,0.0,2.7,112
2016-12-07 01:10:05,17.8,8.0,9.8,0.0,2.8,111
2016-12-07 01:15:05,17.9,7.9,10.0,0.0,2.9,112
2016-12-07 01:20:05,17.9,7.4,10.5,0.0,2.9,111
2016-12-07 01:25:05,17.9,7.6,10.3,0.0,2.9,111
2016-12-07 01:30:05,17.9,8.0,9.9,0.0,2.8,112
2016-12-07 01:35:05,17.8,7.6,10.2,0.0,2.7,111
2016-12-07 01:40:05,17.8,8.2,9.6,0.0,2.7,112
2016-12-07 01:45:05,17.9,8.4,9.5,0.0,2.8,111
2016-12-07 01:50:05,18.0,8.0,10.0,0.0,2.9,112
2016-12-07 01:55:05,18.0,8.3,9.7,0.0,2.9,111
2016-12-07 02:00:05,17.9,8.4,9.6,0.0,2.8,111
2016-12-07 02:05:05,17.8,8.4,9.4,0.0,2.8,112
2016-12-07 02:10:05,17.8,8.6,9.2,0.0,2.7,111
2016-12-07 02:15:05,17.8,8.5,9.3,0.0,2.8,112
2016-12-07 02:20:05,17.9,8.6,9.3,0.0,2.8,111
2016-12-07 02:25:05,17.9,8.5,9.4,0.0,2.8,112
2016-12-07 02:30:05,18.1,8.3,9.8,0.0,2.9,111
2016-12-07 02:35:05,18.2,8.1,10.1,0.0,3.0,111
2016-12-07 02:40:05,18.2,8.2,10.0,0.0,3.0,112
2016-12-07 02:45:05,18.2,8.6,9.7,0.0,3.0,111
2016-12-07 02:50:05,17.9,8.6,9.2,0.0,3.0,112
2016-12-07 02:55:05,18.1,8.6,9.5,0.0,2.9,111
2016-12-07 03:00:05,18.1,8.6,9.5,0.0,3.0,111
2016-12-07 03:05:05,18.1,8.8,9.4,0.0,3.0,112
2016-12-07 03:10:05,18.2,8.8,9.4,0.0,3.0,111
2016-12-07 03:15:05,18.2,8.7,9.5,0.0,3.0,112
2016-12-07 03:20:05,18.2,8.8,9.4,0.0,3.0,111
2016-12-07 03:25:05,18.2,8.7,9.5,0.0,3.1,112
2016-12-07 03:30:05,17.9,8.8,9.1,0.0,3.0,111
2016-12-07 03:35:05,18.2,8.7,9.5,0.0,3.1,112
2016-12-07 03:40:05,18.2,9.0,9.2,0.0,3.1,111
2016-12-07 03:45:05,18.2,8.6,9.6,0.0,3.1,112
2016-12-07 03:50:05,18.1,7.8,10.4,0.0,3.1,111
2016-12-07 03:55:05,18.0,7.6,10.5,0.0,3.0,111
2016-12-07 04:00:05,18.0,8.3,9.7,0.0,3.0,112
2016-12-07 04:05:05,18.0,8.2,9.8,0.0,3.1,111
2016-12-07 04:10:05,18.0,8.2,9.8,0.0,3.1,112
2016-12-07 04:15:05,18.0,8.8,9.2,0.0,3.0,111
2016-12-07 04:20:05,18.1,8.6,9.5,0.0,3.0,111
2016-12-07 04:25:05,18.1,8.8,9.3,0.0,3.1,112
2016-12-07 04:30:05,18.1,8.9,9.3,0.0,3.0,111
2016-12-07 04:35:05,18.1,8.7,9.5,0.0,3.0,112
2016-12-07 04:40:05,18.2,8.9,9.3,0.0,3.0,111
2016-12-07 04:45:05,18.2,8.8,9.4,0.0,3.1,112
2016-12-07 04:50:05,18.1,8.2,10.0,0.0,3.0,111
2016-12-07 04:55:05,18.0,8.3,9.7,0.0,2.9,111
2016-12-07 05:00:05,17.9,8.5,9.5,0.0,2.9,112
2016-12-07 05:05:05,18.0,8.8,9.2,0.0,2.9,111
2016-12-07 05:10:05,18.1,9.2,9.0,0.0,3.0,111
2016-12-07 05:15:05,18.2,8.7,9.5,0.0,3.0,111
2016-12-07 05:20:05,18.1,8.4,9.8,0.0,3.0,112
2016-12-07 05:25:05,18.1,9.0,9.1,0.0,2.9,112
2016-12-07 05:30:05,18.1,8.9,9.2,0.0,2.9,111
2016-12-07 05:35:05,18.1,8.8,9.4,0.0,2.9,111
2016-12-07 05:40:05,18.1,8.8,9.3,0.0,2.9,111
2016-12-07 05:45:05,18.1,9.2,8.9,0.0,3.0,112
2016-12-07 05:50:05,18.2,9.2,9.0,0.0,3.0,111
2016-12-07 05:55:05,18.2,9.0,9.2,0.0,3.1,112
2016-12-07 06:00:05,18.2,8.6,9.6,0.0,3.0,111
2016-12-07 06:05:04,18.1,8.3,9.8,0.0,2.8,70
2016-12-07 06:10:04,18.1,8.7,9.4,0.0,2.8,111
2016-12-07 06:15:04,18.1,8.9,9.2,0.0,2.9,112
2016-12-07 06:20:04,18.1,8.6,9.4,0.0,3.0,111
2016-12-07 06:25:04,18.1,8.5,9.5,0.0,3.0,112
2016-12-07 06:30:04,18.0,8.1,9.9,0.0,3.1,111
2016-12-07 06:35:04,18.0,8.0,10.0,0.0,3.0,112
2016-12-07 06:40:04,17.9,7.8,10.1,0.0,3.0,111
2016-12-07 06:45:04,17.9,7.5,10.4,0.0,2.9,112
2016-12-07 06:50:04,17.8,6.5,11.3,0.0,2.9,112
2016-12-07 06:55:04,17.8,6.9,10.9,0.1,2.9,111
2016-12-07 07:00:04,17.8,6.9,10.9,0.3,2.8,112
2016-12-07 07:05:04,17.8,7.1,10.7,0.6,2.8,111
2016-12-07 07:10:04,17.8,6.6,11.2,1.4,2.8,112
2016-12-07 07:15:04,17.8,5.7,12.1,2.9,2.8,111
2016-12-07 07:20:04,17.7,7.1,10.7,4.9,2.8,112
2016-12-07 07:25:04,17.8,7.9,9.9,7.8,2.8,111
2016-12-07 07:30:04,17.8,7.8,10.0,12.4,2.8,112
2016-12-07 07:35:04,17.8,7.8,10.0,17.6,2.7,112
2016-12-07 07:40:04,17.8,5.5,12.3,22.9,2.8,111
2016-12-07 07:45:04,17.8,3.4,14.4,26.2,2.8,111
2016-12-07 07:50:04,17.7,5.7,12.0,27.7,2.7,112
2016-12-07 07:55:04,17.7,6.9,10.8,29.0,2.7,112
2016-12-07 08:00:04,17.8,4.5,13.3,30.0,2.8,111
2016-12-07 08:05:04,17.8,3.0,14.7,30.7,2.8,111
2016-12-07 08:10:04,17.7,1.3,16.4,31.2,2.7,112
2016-12-07 08:15:04,17.6,-0.1,17.7,31.5,2.7,111
2016-12-07 08:20:04,17.6,0.8,16.7,31.6,2.7,111
2016-12-07 08:25:04,17.5,-0.4,17.9,31.8,2.7,112
2016-12-07 08:30:04,17.5,-1.1,18.7,31.9,2.7,112
2016-12-07 08:35:04,18.3,-2.0,20.3,32.0,2.8,111
2016-12-07 08:40:04,20.8,-1.3,22.1,32.1,2.7,112
2016-12-07 08:45:04,21.7,-1.4,23.1,32.1,2.7,112
2016-12-07 08:50:04,22.0,-2.1,24.1,32.1,2.7,112
2016-12-07 08:55:04,21.7,-3.1,24.8,32.2,2.4,111
2016-12-07 09:00:04,22.3,-3.5,25.8,32.2,2.4,112
2016-12-07 09:05:04,22.5,-3.5,25.9,32.2,2.6,112
2016-12-07 09:10:04,22.6,-3.5,26.2,32.2,2.7,111
2016-12-07 09:15:04,22.8,-3.2,26.0,32.3,2.7,112
2016-12-07 09:20:04,23.0,-2.8,25.7,32.3,2.7,112
2016-12-07 09:25:04,23.0,-2.1,25.1,32.3,2.8,112
2016-12-07 09:30:04,23.0,-0.9,24.0,32.3,2.8,111
2016-12-07 09:35:04,23.2,0.7,22.5,32.3,2.9,112
2016-12-07 09:40:04,23.3,2.0,21.4,32.4,3.1,110
2016-12-07 09:45:04,23.0,2.9,20.1,32.4,3.1,112
2016-12-07 09:50:04,21.9,3.2,18.7,32.3,2.8,111
2016-12-07 09:55:04,19.8,3.1,16.7,32.3,2.4,111
2016-12-07 10:00:04,19.3,3.2,16.1,32.4,2.7,112
2016-12-07 10:05:04,19.0,2.8,16.2,32.4,2.7,111
2016-12-07 10:10:04,18.9,2.3,16.5,32.4,2.7,111
2016-12-07 10:15:04,18.9,2.0,16.9,32.4,2.7,111
2016-12-07 10:20:04,18.9,1.9,17.0,32.4,2.7,112
2016-12-07 10:25:04,18.9,2.2,16.7,32.4,2.7,110
2016-12-07 10:30:04,19.0,2.1,16.9,32.4,2.7,112
2016-12-07 10:35:04,19.0,1.7,17.3,32.4,2.7,111
2016-12-07 10:40:04,19.0,1.6,17.4,32.4,2.7,111
2016-12-07 10:45:04,19.1,1.4,17.6,32.4,2.7,111
2016-12-07 10:50:04,19.1,1.8,17.3,32.4,2.7,110
2016-12-07 10:55:04,19.2,1.4,17.7,32.4,2.7,111
2016-12-07 11:00:04,19.2,1.7,17.5,32.4,2.7,112
2016-12-07 11:05:04,19.2,2.6,16.6,32.4,2.7,111
2016-12-07 11:10:04,19.3,2.5,16.8,32.4,2.6,111
2016-12-07 11:15:04,19.3,2.6,16.7,32.4,2.6,111
2016-12-07 11:20:04,19.3,2.2,17.1,32.4,2.5,111
2016-12-07 11:25:04,19.3,2.2,17.1,32.4,2.6,111
2016-12-07 11:30:04,19.3,2.2,17.1,32.4,2.6,111
2016-12-07 11:35:04,19.3,2.4,17.0,32.4,2.5,111
2016-12-07 11:40:04,19.0,2.5,16.5,32.4,2.4,111
2016-12-07 11:45:04,19.3,3.1,16.3,32.4,2.5,111
2016-12-07 11:50:04,19.4,2.8,16.6,32.4,2.4,112
2016-12-07 11:55:04,19.3,2.9,16.4,32.4,2.5,111
2016-12-07 12:00:04,19.3,3.0,16.3,32.4,2.5,111
2016-12-07 12:05:04,19.4,2.7,16.6,32.4,2.5,111
2016-12-07 12:10:04,19.4,2.9,16.5,32.4,2.5,112
2016-12-07 12:15:04,19.4,2.6,16.8,32.4,2.6,111
2016-12-07 12:20:04,19.3,2.7,16.6,32.4,2.7,111
2016-12-07 12:25:04,18.9,2.9,16.0,32.3,2.7,111
2016-12-07 12:30:04,19.3,3.0,16.3,32.3,2.7,111
2016-12-07 12:35:04,19.2,2.9,16.3,32.3,2.7,112
2016-12-07 12:40:04,19.3,3.0,16.3,32.4,2.7,111
2016-12-07 12:45:04,19.4,2.7,16.7,32.4,2.7,111
2016-12-07 12:50:04,19.4,2.9,16.4,32.4,2.7,110
2016-12-07 12:55:04,19.3,2.8,16.5,32.3,2.7,111
2016-12-07 13:00:04,19.2,2.5,16.7,32.3,2.7,112
2016-12-07 13:05:04,19.1,2.4,16.7,32.3,2.7,111
2016-12-07 13:10:04,19.0,2.4,16.6,32.2,2.7,111
2016-12-07 13:15:04,18.9,2.5,16.4,32.2,2.7,112
2016-12-07 13:20:04,18.8,2.6,16.3,32.2,2.7,111
2016-12-07 13:25:04,18.5,2.5,16.0,32.2,2.7,111
2016-12-07 13:30:04,18.8,2.1,16.7,32.2,2.7,111
2016-12-07 13:35:04,18.8,2.0,16.8,32.2,2.7,111
2016-12-07 13:40:04,18.7,1.5,17.2,32.2,2.7,111
2016-12-07 13:45:04,18.7,1.8,16.8,32.2,2.7,111
2016-12-07 13:50:04,18.7,1.8,16.9,32.1,2.7,111
2016-12-07 13:55:04,18.7,1.9,16.8,32.1,2.7,112
2016-12-07 14:00:04,18.3,1.9,16.4,32.2,2.7,111
2016-12-07 14:05:04,18.6,1.8,16.8,32.2,2.7,111
2016-12-07 14:10:05,18.6,1.8,16.8,32.2,2.7,111
2016-12-07 14:15:05,18.5,1.6,17.0,32.2,2.7,111
2016-12-07 14:20:05,18.5,1.3,17.2,32.2,2.7,111
2016-12-07 14:25:05,18.5,1.3,17.2,32.2,2.7,111
2016-12-07 14:30:05,18.4,1.3,17.2,32.1,2.7,111
2016-12-07 14:35:05,18.4,1.2,17.2,32.1,2.7,111
2016-12-07 14:40:05,18.4,1.0,17.4,32.1,2.7,111
2016-12-07 14:45:05,18.4,1.1,17.3,32.1,2.7,111
2016-12-07 14:50:05,18.4,1.1,17.3,32.0,2.7,111
2016-12-07 14:55:05,18.4,1.1,17.3,32.0,2.7,112
2016-12-07 15:00:05,18.3,1.2,17.2,32.0,2.7,111
2016-12-07 15:05:05,18.3,1.2,17.1,31.9,2.7,111
2016-12-07 15:10:05,18.3,1.2,17.1,31.8,2.7,111
2016-12-07 15:15:05,18.2,1.3,17.0,31.8,2.7,111
2016-12-07 15:20:05,18.2,1.1,17.1,31.8,2.8,111
2016-12-07 15:25:05,18.1,0.7,17.4,31.7,3.0,111
2016-12-07 15:30:05,18.0,0.7,17.3,31.6,3.1,111
2016-12-07 15:35:05,18.0,1.1,16.9,31.4,3.0,111
2016-12-07 15:40:05,18.0,1.1,16.9,31.3,3.0,111
2016-12-07 15:45:05,18.0,0.6,17.5,31.1,3.1,112
2016-12-07 15:50:05,18.1,-0.2,18.2,30.8,3.0,112
2016-12-07 15:55:05,18.1,-0.6,18.7,30.2,3.0,112
2016-12-07 16:00:05,18.0,-1.0,19.0,29.3,3.1,111
2016-12-07 16:05:05,18.0,-0.8,18.8,28.5,3.1,112
2016-12-07 16:10:05,17.9,-0.7,18.6,27.0,3.0,112
2016-12-07 16:15:05,17.8,-0.4,18.3,24.4,2.9,112
2016-12-07 16:20:05,17.8,-0.1,17.9,21.1,2.8,112
2016-12-07 16:25:05,17.7,-0.1,17.8,16.1,2.8,112
2016-12-07 16:30:05,17.7,0.0,17.7,11.0,2.8,112
2016-12-07 16:35:05,17.7,-0.0,17.8,6.9,2.8,111
2016-12-07 16:40:05,17.8,0.2,17.6,4.0,2.8,112
2016-12-07 16:45:05,17.8,0.3,17.5,2.3,2.9,111
2016-12-07 16:50:05,17.9,0.3,17.6,1.3,3.0,112
2016-12-07 16:55:05,18.0,0.1,17.9,0.7,2.9,111
2016-12-07 17:00:05,18.0,-0.5,18.5,0.4,2.9,112
2016-12-07 17:05:05,18.1,-1.6,19.7,0.2,2.9,112
2016-12-07 17:10:05,20.5,-2.6,23.0,0.2,2.7,112
2016-12-07 17:15:05,21.9,-2.6,24.5,0.1,2.5,111
2016-12-07 17:20:05,22.3,-2.1,24.4,0.1,2.6,112
2016-12-07 17:25:05,22.5,-1.6,24.1,0.1,2.7,112
2016-12-07 17:30:05,22.6,-1.3,23.9,0.1,2.7,111
2016-12-07 17:35:05,22.2,-1.5,23.7,0.1,2.7,112
2016-12-07 17:40:05,22.6,-1.4,24.0,0.1,2.8,111
2016-12-07 17:45:05,22.6,-1.5,24.1,0.1,2.7,112
2016-12-07 17:50:05,22.5,-1.3,23.9,0.1,2.7,111
2016-12-07 17:55:05,22.6,-0.9,23.5,0.1,2.7,112
2016-12-07 18:00:05,22.6,-0.7,23.3,0.1,2.8,112
2016-12-07 18:05:05,22.7,-0.6,23.3,0.1,2.8,112
2016-12-07 18:10:05,22.7,-0.6,23.2,0.1,2.8,111
2016-12-07 18:15:05,22.7,-0.5,23.3,0.1,2.8,112
2016-12-07 18:20:05,22.8,-0.7,23.4,0.1,2.8,112
2016-12-07 18:25:05,22.7,-0.6,23.4,0.1,2.8,112
2016-12-07 18:30:05,22.7,-0.0,22.7,0.1,2.8,112
2016-12-07 18:35:05,22.7,0.2,22.5,0.1,2.8,111
2016-12-07 18:40:05,22.6,0.2,22.4,0.1,2.8,112
2016-12-07 18:45:05,22.6,0.3,22.3,0.1,2.8,111
2016-12-07 18:50:05,22.5,0.2,22.3,0.1,2.8,112
2016-12-07 18:55:05,22.1,0.3,21.7,0.1,2.7,111
2016-12-07 19:00:05,21.8,0.3,21.4,0.1,2.6,111
2016-12-07 19:05:05,21.6,0.2,21.4,0.1,2.6,112
2016-12-07 19:10:05,21.7,0.2,21.5,0.1,2.7,111
2016-12-07 19:15:05,21.7,0.3,21.4,0.1,2.7,112
2016-12-07 19:20:05,21.7,0.3,21.4,0.1,2.7,111
2016-12-07 19:25:05,22.1,0.1,21.9,0.1,2.8,111
2016-12-07 19:30:05,22.4,-0.2,22.5,0.1,2.9,112
2016-12-07 19:35:05,22.5,-0.4,22.9,0.1,2.9,112
2016-12-07 19:40:05,22.2,-0.7,22.9,0.1,2.8,112
2016-12-07 19:45:05,22.1,-1.4,23.5,0.1,2.9,112
2016-12-07 19:50:05,22.4,-1.8,24.2,0.1,2.9,111
2016-12-07 19:55:05,22.4,-2.0,24.4,0.1,2.9,112
2016-12-07 20:00:05,22.4,-2.1,24.4,0.1,2.9,112
2016-12-07 20:05:05,22.4,-2.2,24.5,0.1,2.9,111
2016-12-07 20:10:05,22.4,-1.7,24.1,0.1,2.9,111
2016-12-07 20:15:05,22.4,-1.7,24.1,0.1,2.9,112
2016-12-07 20:20:05,22.5,-1.8,24.3,0.1,2.9,112
2016-12-07 20:25:05,22.5,-2.5,24.9,0.1,2.9,111
2016-12-07 20:30:05,22.5,-3.3,25.7,0.1,2.9,112
2016-12-07 20:35:05,22.5,-3.7,26.2,0.1,2.8,112
2016-12-07 20:40:05,22.5,-3.5,26.0,0.1,2.9,112
2016-12-07 20:45:05,22.5,-3.3,25.8,0.1,2.8,112
2016-12-07 20:50:05,22.6,-3.9,26.4,0.2,2.9,112
2016-12-07 20:55:05,22.5,-4.4,27.0,0.2,2.9,112
2016-12-07 21:00:05,22.4,-4.2,26.6,0.1,2.9,112
2016-12-07 21:05:05,22.4,-3.7,26.2,0.2,2.9,111
2016-12-07 21:10:05,22.5,-3.6,26.1,0.2,2.9,112
2016-12-07 21:15:05,22.6,-4.4,26.9,0.1,2.9,112
2016-12-07 21:20:05,22.5,-5.0,27.5,0.2,2.9,111
2016-12-07 21:25:05,22.0,-5.4,27.4,0.1,2.9,112
2016-12-07 21:30:05,22.4,-5.6,28.0,0.2,2.9,111
2016-12-07 21:35:05,21.9,-5.9,27.8,0.1,2.9,111
2016-12-07 21:40:05,22.3,-5.9,28.2,0.1,2.9,112
2016-12-07 21:45:05,22.3,-5.9,28.2,0.1,2.9,111
2016-12-07 21:50:05,22.3,-5.9,28.2,0.1,2.9,111
2016-12-07 21:55:05,22.3,-5.9,28.2,0.1,2.8,112
2016-12-07 22:00:05,22.3,-6.1,28.4,0.1,2.9,111
2016-12-07 22:05:05,22.3,-6.2,28.5,0.1,2.9,112
2016-12-07 22:10:05,22.3,-6.0,28.3,0.1,2.8,112
2016-12-07 22:15:05,22.2,-5.9,28.1,0.1,2.8,112
2016-12-07 22:20:05,22.1,-5.9,28.0,0.0,2.8,111
2016-12-07 22:25:05,22.1,-6.0,28.0,0.0,2.7,112
2016-12-07 22:30:05,22.1,-5.9,27.9,0.0,2.7,111
2016-12-07 22:35:05,22.0,-5.7,27.7,0.1,2.7,112
2016-12-07 22:40:05,22.0,-5.4,27.4,0.1,2.7,111
2016-12-07 22:45:05,22.0,-5.2,27.2,0.1,2.7,112
2016-12-07 22:50:05,22.0,-5.3,27.3,0.1,2.7,111
2016-12-07 22:55:05,22.1,-5.6,27.6,0.1,2.7,112
2016-12-07 23:00:05,22.1,-5.6,27.8,0.0,2.7,111
2016-12-07 23:05:05,22.1,-5.9,28.0,0.0,2.7,112
2016-12-07 23:10:05,22.0,-6.0,28.1,0.0,2.7,111
2016-12-07 23:15:05,22.0,-6.0,28.1,0.0,2.7,111
2016-12-07 23:20:05,22.0,-3.0,25.0,0.0,2.7,112
2016-12-07 23:25:05,22.1,-0.3,22.4,0.0,2.7,112
2016-12-07 23:30:05,20.8,3.2,17.6,0.0,2.5,111
2016-12-07 23:35:05,18.6,5.6,13.0,0.0,2.7,112
2016-12-07 23:40:05,18.0,5.3,12.7,0.0,2.7,112
2016-12-07 23:45:05,17.9,0.5,17.4,0.0,2.7,111
2016-12-07 23:50:05,17.9,1.0,16.9,0.0,2.7,111
2016-12-07 23:55:05,17.7,3.8,13.9,0.0,2.8,112
